,,,PA_Meas_PMT16A,,PR_Meas_QMR101_102,,RH_Meas_QMH101,,SR_Meas_QMS101,,TA_Meas_QMH101,,GenWind,,GenWind,
date,time,status,PA,status,PR,status,RH,status,SR,status,TA,status,DirAvg,status,SpdAvg,
2011-08-14, 00:00:05,VALID,1000.86,VALID,0,VALID,74.6482,VALID,0,VALID,23.8183,VALID,102,VALID,0.538281,
2011-08-14, 00:01:05,VALID,1000.8,VALID,0,VALID,74.9687,VALID,0,VALID,23.7811,VALID,102,VALID,0.0511719,
2011-08-14, 00:02:05,VALID,1000.86,VALID,0,VALID,75.518,VALID,0,VALID,23.742,VALID,102,VALID,0.203125,
2011-08-14, 00:03:05,VALID,1000.83,VALID,0,VALID,76.0139,VALID,0,VALID,23.703,VALID,18,VALID,0.63125,
2011-08-14, 00:04:05,VALID,1000.85,VALID,0,VALID,76.2046,VALID,0,VALID,23.6036,VALID,352,VALID,0.314453,
2011-08-14, 00:05:05,VALID,1000.84,VALID,0,VALID,76.7387,VALID,0,VALID,23.5646,VALID,352,VALID,0.407422,
2011-08-14, 00:06:05,VALID,1000.85,VALID,0,VALID,76.5632,VALID,0,VALID,23.5274,VALID,352,VALID,0.852344,
2011-08-14, 00:07:05,VALID,1000.88,VALID,0,VALID,76.6166,VALID,0,VALID,23.5079,VALID,351,VALID,0.720312,
2011-08-14, 00:08:05,VALID,1000.86,VALID,0,VALID,76.9676,VALID,0,VALID,23.4688,VALID,350,VALID,0.7,
2011-08-14, 00:09:05,VALID,1000.88,VALID,0,VALID,77.8984,VALID,0,VALID,23.4103,VALID,326,VALID,0.644922,
2011-08-14, 00:10:05,VALID,1000.85,VALID,0,VALID,77.1355,VALID,0,VALID,23.3323,VALID,295,VALID,0.846094,
2011-08-14, 00:11:05,VALID,1000.86,VALID,0,VALID,76.9676,VALID,0,VALID,23.3695,VALID,295,VALID,0.362109,
2011-08-14, 00:12:05,VALID,1000.9,VALID,0,VALID,76.258,VALID,0,VALID,23.4085,VALID,296,VALID,0.419531,
2011-08-14, 00:13:05,VALID,1000.87,VALID,0,VALID,76.1207,VALID,0,VALID,23.5469,VALID,296,VALID,0.464844,
2011-08-14, 00:14:05,VALID,1000.88,VALID,0,VALID,75.9834,VALID,0,VALID,23.5859,VALID,296,VALID,0.492578,
2011-08-14, 00:15:05,VALID,1000.85,VALID,0,VALID,75.1365,VALID,0,VALID,23.625,VALID,296,VALID,0.428906,
2011-08-14, 00:16:05,VALID,1000.88,VALID,0,VALID,76.197,VALID,0.112286,VALID,23.6622,VALID,297,VALID,0.396484,
2011-08-14, 00:17:05,VALID,1000.86,VALID,0,VALID,75.7163,VALID,0,VALID,23.5823,VALID,297,VALID,0.106641,
2011-08-14, 00:18:05,VALID,1000.87,VALID,0,VALID,75.9529,VALID,0,VALID,23.5433,VALID,297,VALID,0.0015625,
2011-08-14, 00:19:05,VALID,1000.86,VALID,0,VALID,75.4722,VALID,0,VALID,23.5238,VALID,297,VALID,0.140234,
2011-08-14, 00:20:05,VALID,1000.82,VALID,0,VALID,75.6706,VALID,0.112286,VALID,23.5433,VALID,297,VALID,0.298828,
2011-08-14, 00:21:05,VALID,1000.84,VALID,0,VALID,76.3954,VALID,0,VALID,23.5433,VALID,297,VALID,0.242578,
2011-08-14, 00:22:05,VALID,1000.82,VALID,0,VALID,77.0286,VALID,0,VALID,23.4671,VALID,297,VALID,0.714844,
2011-08-14, 00:23:05,VALID,1000.85,VALID,0,VALID,77.784,VALID,0,VALID,23.3677,VALID,2,VALID,0.603516,
2011-08-14, 00:24:05,VALID,1000.83,VALID,0,VALID,77.9289,VALID,0,VALID,23.2719,VALID,56,VALID,0.708984,
2011-08-14, 00:25:05,VALID,1000.79,VALID,0,VALID,77.7611,VALID,0.112286,VALID,23.1939,VALID,56,VALID,0.562891,
2011-08-14, 00:26:05,VALID,1000.81,VALID,0,VALID,77.494,VALID,0,VALID,23.1921,VALID,29,VALID,0.712109,
2011-08-14, 00:27:05,VALID,1000.82,VALID,0,VALID,77.6466,VALID,0,VALID,23.2117,VALID,29,VALID,0.211328,
2011-08-14, 00:28:05,VALID,1000.82,VALID,0,VALID,78.0434,VALID,0.112286,VALID,23.2329,VALID,29,VALID,0.314844,
2011-08-14, 00:29:05,VALID,1000.81,VALID,0,VALID,78.3409,VALID,0,VALID,23.1744,VALID,29,VALID,0.392188,
2011-08-14, 00:30:05,VALID,1000.81,VALID,0,VALID,78.7377,VALID,0,VALID,23.1354,VALID,29,VALID,0.277344,
2011-08-14, 00:31:05,VALID,1000.79,VALID,0,VALID,79.2641,VALID,0,VALID,23.0786,VALID,29,VALID,0.625391,
2011-08-14, 00:32:05,VALID,1000.79,VALID,0,VALID,80.1721,VALID,0,VALID,23.0378,VALID,43,VALID,0.871875,
2011-08-14, 00:33:05,VALID,1000.81,VALID,0,VALID,80.1339,VALID,0,VALID,23.0591,VALID,49,VALID,1.44648,
2011-08-14, 00:34:05,VALID,1000.85,VALID,0,VALID,79.5769,VALID,0,VALID,22.9988,VALID,36,VALID,1.08125,
2011-08-14, 00:35:05,VALID,1000.82,VALID,0,VALID,80.0195,VALID,0,VALID,23.0006,VALID,51,VALID,0.862109,
2011-08-14, 00:36:05,VALID,1000.82,VALID,0,VALID,80.5001,VALID,0,VALID,22.9615,VALID,29,VALID,1.00156,
2011-08-14, 00:37:05,VALID,1000.82,VALID,0,VALID,81.1334,VALID,0,VALID,22.8623,VALID,353,VALID,0.817969,
2011-08-14, 00:38:05,VALID,1000.81,VALID,0,VALID,82.1252,VALID,0,VALID,22.7647,VALID,353,VALID,0.74375,
2011-08-14, 00:39:05,VALID,1000.79,VALID,0,VALID,82.5983,VALID,0,VALID,22.7257,VALID,353,VALID,0.673047,
2011-08-14, 00:40:05,VALID,1000.81,VALID,0,VALID,82.8958,VALID,0,VALID,22.6884,VALID,353,VALID,0.412891,
2011-08-14, 00:41:05,VALID,1000.8,VALID,0,VALID,83.1705,VALID,0,VALID,22.6087,VALID,353,VALID,0.417188,
2011-08-14, 00:42:05,VALID,1000.78,VALID,0,VALID,83.262,VALID,0,VALID,22.5714,VALID,353,VALID,0.645312,
2011-08-14, 00:43:05,VALID,1000.75,VALID,0,VALID,83.5749,VALID,0,VALID,22.5111,VALID,28,VALID,1.26953,
2011-08-14, 00:44:05,VALID,1000.73,VALID,0,VALID,83.5901,VALID,0,VALID,22.4933,VALID,29,VALID,1.1332,
2011-08-14, 00:45:05,VALID,1000.72,VALID,0,VALID,83.6435,VALID,0,VALID,22.4721,VALID,31,VALID,0.950781,
2011-08-14, 00:46:05,VALID,1000.71,VALID,0,VALID,83.5672,VALID,0,VALID,22.4526,VALID,31,VALID,0.455469,
2011-08-14, 00:47:05,VALID,1000.71,VALID,0,VALID,83.7274,VALID,0,VALID,22.4153,VALID,31,VALID,0.394531,
2011-08-14, 00:48:05,VALID,1000.67,VALID,0,VALID,83.7656,VALID,0,VALID,22.3551,VALID,28,VALID,0.692187,
2011-08-14, 00:49:05,VALID,1000.66,VALID,0,VALID,83.8114,VALID,0,VALID,22.3763,VALID,28,VALID,0.709375,
2011-08-14, 00:50:05,VALID,1000.66,VALID,0,VALID,84.1166,VALID,0,VALID,22.3746,VALID,31,VALID,0.969922,
2011-08-14, 00:51:05,VALID,1000.65,VALID,0,VALID,84.3531,VALID,0,VALID,22.3958,VALID,31,VALID,0.833984,
2011-08-14, 00:52:05,VALID,1000.66,VALID,0,VALID,84.5438,VALID,0,VALID,22.3958,VALID,45,VALID,1.11016,
2011-08-14, 00:53:05,VALID,1000.67,VALID,0,VALID,84.6125,VALID,0,VALID,22.3746,VALID,51,VALID,1.18867,
2011-08-14, 00:54:05,VALID,1000.67,VALID,0,VALID,84.2692,VALID,0,VALID,22.4348,VALID,51,VALID,1.06094,
2011-08-14, 00:55:05,VALID,1000.63,VALID,0,VALID,84.0479,VALID,0,VALID,22.4738,VALID,49,VALID,1.20039,
2011-08-14, 00:56:05,VALID,1000.66,VALID,0,VALID,84.0784,VALID,0,VALID,22.4738,VALID,46,VALID,0.666797,
2011-08-14, 00:57:05,VALID,1000.68,VALID,0,VALID,84.3073,VALID,0,VALID,22.3941,VALID,50,VALID,0.535937,
2011-08-14, 00:58:05,VALID,1000.65,VALID,0,VALID,84.5515,VALID,0,VALID,22.3551,VALID,50,VALID,0.338281,
2011-08-14, 00:59:05,VALID,1000.65,VALID,0,VALID,84.7422,VALID,0,VALID,22.3373,VALID,50,VALID,0.357422,
2011-08-14, 01:00:05,VALID,1000.66,VALID,0,VALID,84.8643,VALID,0,VALID,22.2983,VALID,46,VALID,0.608203,
2011-08-14, 01:01:05,VALID,1000.67,VALID,0,VALID,84.6964,VALID,0,VALID,22.2983,VALID,32,VALID,0.610547,
2011-08-14, 01:02:05,VALID,1000.66,VALID,0,VALID,84.4446,VALID,0,VALID,22.3178,VALID,18,VALID,0.682813,
2011-08-14, 01:03:05,VALID,1000.67,VALID,0,VALID,84.6201,VALID,0,VALID,22.3178,VALID,357,VALID,0.728125,
2011-08-14, 01:04:05,VALID,1000.66,VALID,0,VALID,84.3073,VALID,0,VALID,22.3373,VALID,6,VALID,1.06641,
2011-08-14, 01:05:05,VALID,1000.67,VALID,0,VALID,82.728,VALID,0,VALID,22.4738,VALID,46,VALID,0.865625,
2011-08-14, 01:06:05,VALID,1000.69,VALID,0,VALID,82.5754,VALID,0,VALID,22.5714,VALID,66,VALID,0.296484,
2011-08-14, 01:07:05,VALID,1000.66,VALID,0,VALID,82.9569,VALID,0,VALID,22.5501,VALID,17,VALID,0.899219,
2011-08-14, 01:08:05,VALID,1000.66,VALID,0,VALID,83.4223,VALID,0,VALID,22.5323,VALID,6,VALID,0.9,
2011-08-14, 01:09:05,VALID,1000.6,VALID,0,VALID,83.758,VALID,0,VALID,22.5128,VALID,352,VALID,0.564453,
2011-08-14, 01:10:05,VALID,1000.56,VALID,0,VALID,84.3683,VALID,0,VALID,22.4348,VALID,355,VALID,1.09648,
2011-08-14, 01:11:05,VALID,1000.57,VALID,0,VALID,84.5972,VALID,0,VALID,22.4153,VALID,232,VALID,1.51484,
2011-08-14, 01:12:05,VALID,1000.55,VALID,0,VALID,80.6375,VALID,0,VALID,22.5909,VALID,212,VALID,1.24961,
2011-08-14, 01:13:05,VALID,1000.56,VALID,0,VALID,79.2489,VALID,0,VALID,22.9013,VALID,204,VALID,0.573047,
2011-08-14, 01:14:05,VALID,1000.58,VALID,0,VALID,78.4859,VALID,0,VALID,23.0201,VALID,143,VALID,1.00312,
2011-08-14, 01:15:05,VALID,1000.54,VALID,0,VALID,79.2107,VALID,0,VALID,23.0786,VALID,58,VALID,0.908203,
2011-08-14, 01:16:05,VALID,1000.52,VALID,0,VALID,79.8592,VALID,0,VALID,23.0591,VALID,32,VALID,0.840234,
2011-08-14, 01:17:05,VALID,1000.59,VALID,0,VALID,80.3628,VALID,0,VALID,23.0183,VALID,32,VALID,0.526172,
2011-08-14, 01:18:05,VALID,1000.58,VALID,0,VALID,81.0342,VALID,0,VALID,22.9403,VALID,48,VALID,0.884375,
2011-08-14, 01:19:05,VALID,1000.56,VALID,0,VALID,81.5759,VALID,0,VALID,22.8445,VALID,48,VALID,0.343359,
2011-08-14, 01:20:05,VALID,1000.59,VALID,0,VALID,82.0337,VALID,0,VALID,22.7062,VALID,48,VALID,0.0492188,
2011-08-14, 01:21:05,VALID,1000.54,VALID,0,VALID,82.3694,VALID,0,VALID,22.6689,VALID,48,VALID,0.309375,
2011-08-14, 01:22:05,VALID,1000.54,VALID,0,VALID,82.6898,VALID,0,VALID,22.5909,VALID,48,VALID,0.507813,
2011-08-14, 01:23:05,VALID,1000.55,VALID,0,VALID,82.4991,VALID,0,VALID,22.5909,VALID,48,VALID,0.900781,
2011-08-14, 01:24:05,VALID,1000.57,VALID,0,VALID,81.6598,VALID,0,VALID,22.6087,VALID,48,VALID,0.516016,
2011-08-14, 01:25:05,VALID,1000.54,VALID,0,VALID,81.7666,VALID,0,VALID,22.6494,VALID,48,VALID,0.762109,
2011-08-14, 01:26:05,VALID,1000.51,VALID,0,VALID,82.2092,VALID,0,VALID,22.6689,VALID,48,VALID,0.816797,
2011-08-14, 01:27:05,VALID,1000.52,VALID,0,VALID,82.2549,VALID,0,VALID,22.6494,VALID,48,VALID,0.661328,
2011-08-14, 01:28:05,VALID,1000.54,VALID,0,VALID,82.3083,VALID,0,VALID,22.5714,VALID,48,VALID,0.395312,
2011-08-14, 01:29:05,VALID,1000.5,VALID,0,VALID,82.9263,VALID,0,VALID,22.4738,VALID,48,VALID,0.822656,
2011-08-14, 01:30:05,VALID,1000.52,VALID,0,VALID,83.5596,VALID,0,VALID,22.3958,VALID,48,VALID,0.575,
2011-08-14, 01:31:05,VALID,1000.5,VALID,0,VALID,83.8572,VALID,0,VALID,22.3373,VALID,48,VALID,0.560156,
2011-08-14, 01:32:05,VALID,1000.48,VALID,0,VALID,84.1242,VALID,0,VALID,22.2592,VALID,48,VALID,0.445703,
2011-08-14, 01:33:05,VALID,1000.42,VALID,0,VALID,84.3455,VALID,0,VALID,22.2007,VALID,48,VALID,0.362109,
2011-08-14, 01:34:05,VALID,1000.4,VALID,0,VALID,84.6506,VALID,0,VALID,22.1617,VALID,48,VALID,0.591016,
2011-08-14, 01:35:05,VALID,1000.4,VALID,0,VALID,84.7574,VALID,0,VALID,22.1812,VALID,48,VALID,0.387109,
2011-08-14, 01:36:05,VALID,1000.38,VALID,0,VALID,84.6812,VALID,0,VALID,22.1812,VALID,48,VALID,0.0261719,
2011-08-14, 01:37:05,VALID,1000.4,VALID,0,VALID,84.5362,VALID,0,VALID,22.1617,VALID,48,VALID,0,
2011-08-14, 01:38:05,VALID,1000.33,VALID,0,VALID,84.4523,VALID,0,VALID,22.1617,VALID,48,VALID,0,
2011-08-14, 01:39:05,VALID,1000.32,VALID,0,VALID,84.437,VALID,0,VALID,22.1617,VALID,48,VALID,0.00234375,
2011-08-14, 01:40:05,VALID,1000.29,VALID,0,VALID,84.4065,VALID,0,VALID,22.1617,VALID,48,VALID,0.0800781,
2011-08-14, 01:41:05,VALID,1000.26,VALID,0,VALID,84.3149,VALID,0,VALID,22.1812,VALID,48,VALID,0.498437,
2011-08-14, 01:42:05,VALID,1000.28,VALID,0,VALID,84.086,VALID,0,VALID,22.2007,VALID,48,VALID,0.34375,
2011-08-14, 01:43:05,VALID,1000.29,VALID,0,VALID,84.025,VALID,0,VALID,22.2202,VALID,48,VALID,0.645312,
2011-08-14, 01:44:05,VALID,1000.29,VALID,0,VALID,84.0784,VALID,0,VALID,22.2592,VALID,62,VALID,0.789063,
2011-08-14, 01:45:05,VALID,1000.25,VALID,0,VALID,83.9258,VALID,0,VALID,22.2983,VALID,62,VALID,0.723828,
2011-08-14, 01:46:05,VALID,1000.23,VALID,0,VALID,83.6054,VALID,0,VALID,22.3763,VALID,62,VALID,1.025,
2011-08-14, 01:47:05,VALID,1000.22,VALID,0,VALID,83.2544,VALID,0,VALID,22.3958,VALID,62,VALID,0.537109,
2011-08-14, 01:48:05,VALID,1000.23,VALID,0,VALID,83.3383,VALID,0,VALID,22.3568,VALID,62,VALID,0.7,
2011-08-14, 01:49:05,VALID,1000.18,VALID,0,VALID,83.5977,VALID,0,VALID,22.2788,VALID,62,VALID,1.02148,
2011-08-14, 01:50:05,VALID,1000.15,VALID,0,VALID,83.8343,VALID,0,VALID,22.2397,VALID,62,VALID,0.269922,
2011-08-14, 01:51:05,VALID,1000.12,VALID,0,VALID,83.9869,VALID,0,VALID,22.1617,VALID,62,VALID,0.410547,
2011-08-14, 01:52:05,VALID,1000.15,VALID,0,VALID,84.2692,VALID,0,VALID,22.1227,VALID,62,VALID,0.616016,
2011-08-14, 01:53:05,VALID,1000.15,VALID,0,VALID,84.7803,VALID,0,VALID,22.0837,VALID,62,VALID,0.814844,
2011-08-14, 01:54:05,VALID,1000.13,VALID,0,VALID,85.2686,VALID,0,VALID,22.043,VALID,62,VALID,0.422656,
2011-08-14, 01:55:05,VALID,1000.1,VALID,0,VALID,85.0092,VALID,0,VALID,22.0252,VALID,62,VALID,0.480469,
2011-08-14, 01:56:05,VALID,1000.08,VALID,0,VALID,85.3907,VALID,0,VALID,21.9667,VALID,62,VALID,0.500391,
2011-08-14, 01:57:05,VALID,1000.1,VALID,0,VALID,85.734,VALID,0,VALID,21.9862,VALID,62,VALID,0.276563,
2011-08-14, 01:58:05,VALID,1000.09,VALID,0,VALID,85.7569,VALID,0,VALID,21.9862,VALID,62,VALID,0.304688,
2011-08-14, 01:59:05,VALID,1000.08,VALID,0,VALID,85.6196,VALID,0,VALID,22.004,VALID,62,VALID,0.359375,
2011-08-14, 02:00:05,VALID,1000.07,VALID,0,VALID,85.4365,VALID,0,VALID,22.004,VALID,62,VALID,0.0292969,
2011-08-14, 02:01:05,VALID,1000.08,VALID,0,VALID,85.2457,VALID,0,VALID,22.0252,VALID,62,VALID,0,
2011-08-14, 02:02:05,VALID,1000.07,VALID,0,VALID,85.1923,VALID,0,VALID,22.0252,VALID,62,VALID,0.294922,
2011-08-14, 02:03:05,VALID,1000.08,VALID,0,VALID,85.2305,VALID,0,VALID,22.0057,VALID,62,VALID,0,
2011-08-14, 02:04:05,VALID,1000.11,VALID,0,VALID,85.4212,VALID,0,VALID,22.0057,VALID,62,VALID,0.423438,
2011-08-14, 02:05:05,VALID,1000.08,VALID,0,VALID,85.3526,VALID,0,VALID,21.9667,VALID,62,VALID,0.433203,
2011-08-14, 02:06:05,VALID,1000.11,VALID,0,VALID,85.5509,VALID,0,VALID,21.9082,VALID,62,VALID,0.327734,
2011-08-14, 02:07:05,VALID,1000.11,VALID,0,VALID,86.1689,VALID,0,VALID,21.8887,VALID,62,VALID,0.685547,
2011-08-14, 02:08:05,VALID,1000.08,VALID,0,VALID,86.6267,VALID,0,VALID,21.8887,VALID,39,VALID,0.945313,
2011-08-14, 02:09:05,VALID,1000.07,VALID,0,VALID,86.6115,VALID,0,VALID,21.8301,VALID,24,VALID,1.10117,
2011-08-14, 02:10:05,VALID,1000.08,VALID,0,VALID,86.8632,VALID,0,VALID,21.7911,VALID,24,VALID,1.01797,
2011-08-14, 02:11:05,VALID,1000.05,VALID,0,VALID,86.7488,VALID,0,VALID,21.7326,VALID,24,VALID,0.867969,
2011-08-14, 02:12:05,VALID,1000.06,VALID,0,VALID,86.7946,VALID,0,VALID,21.6156,VALID,17,VALID,0.632031,
2011-08-14, 02:13:05,VALID,1000.06,VALID,0,VALID,86.97,VALID,0,VALID,21.5376,VALID,17,VALID,0.826563,
2011-08-14, 02:14:05,VALID,1000.08,VALID,0,VALID,87.6262,VALID,0,VALID,21.4401,VALID,46,VALID,1.55898,
2011-08-14, 02:15:04,VALID,1000.01,VALID,0,VALID,88.3434,VALID,0,VALID,21.4206,VALID,42,VALID,1.62266,
2011-08-14, 02:16:04,VALID,1000.06,VALID,0,VALID,88.4502,VALID,0,VALID,21.3816,VALID,39,VALID,1.07461,
2011-08-14, 02:17:04,VALID,1000.05,VALID,0,VALID,88.5036,VALID,0,VALID,21.3231,VALID,41,VALID,0.621484,
2011-08-14, 02:18:04,VALID,1000.05,VALID,0,VALID,88.5417,VALID,0,VALID,21.2857,VALID,41,VALID,0.214844,
2011-08-14, 02:19:04,VALID,1000.05,VALID,0,VALID,88.702,VALID,0,VALID,21.2451,VALID,41,VALID,0.271875,
2011-08-14, 02:20:04,VALID,1000.02,VALID,0,VALID,88.8622,VALID,0,VALID,21.2061,VALID,41,VALID,0.357031,
2011-08-14, 02:21:04,VALID,1000.02,VALID,0,VALID,88.9995,VALID,0,VALID,21.1655,VALID,41,VALID,0.191016,
2011-08-14, 02:22:04,VALID,1000.02,VALID,0,VALID,89.1368,VALID,0,VALID,21.1671,VALID,41,VALID,0.0214844,
2011-08-14, 02:23:04,VALID,1000,VALID,0,VALID,89.4115,VALID,0,VALID,21.1866,VALID,41,VALID,0.352344,
2011-08-14, 02:24:04,VALID,999.968,VALID,0,VALID,89.648,VALID,0,VALID,21.2061,VALID,41,VALID,0.281641,
2011-08-14, 02:25:04,VALID,999.971,VALID,0,VALID,89.793,VALID,0,VALID,21.2451,VALID,41,VALID,0.205859,
2011-08-14, 02:26:04,VALID,999.965,VALID,0,VALID,89.6633,VALID,0,VALID,21.2256,VALID,41,VALID,0.464844,
2011-08-14, 02:27:04,VALID,999.962,VALID,0,VALID,89.6709,VALID,0,VALID,21.2061,VALID,41,VALID,0.917578,
2011-08-14, 02:28:04,VALID,999.93,VALID,0,VALID,89.854,VALID,0,VALID,21.2045,VALID,41,VALID,0.939844,
2011-08-14, 02:29:04,VALID,999.918,VALID,0,VALID,89.8311,VALID,0,VALID,21.2451,VALID,41,VALID,1.00234,
2011-08-14, 02:30:04,VALID,999.911,VALID,0,VALID,89.7243,VALID,0,VALID,21.224,VALID,41,VALID,0.783594,
2011-08-14, 02:31:04,VALID,999.93,VALID,0,VALID,89.4268,VALID,0,VALID,21.1655,VALID,41,VALID,0.452734,
2011-08-14, 02:32:04,VALID,999.928,VALID,0,VALID,89.5946,VALID,0,VALID,21.1671,VALID,41,VALID,0.496094,
2011-08-14, 02:33:04,VALID,999.919,VALID,0,VALID,89.8388,VALID,0,VALID,21.185,VALID,33,VALID,0.788672,
2011-08-14, 02:34:04,VALID,999.901,VALID,0,VALID,89.8006,VALID,0,VALID,21.2256,VALID,18,VALID,0.972266,
2011-08-14, 02:35:04,VALID,999.932,VALID,0,VALID,89.732,VALID,0,VALID,21.1866,VALID,18,VALID,0.866016,
2011-08-14, 02:36:04,VALID,999.933,VALID,0,VALID,89.5412,VALID,0,VALID,21.1671,VALID,18,VALID,0.0191406,
2011-08-14, 02:37:04,VALID,999.924,VALID,0,VALID,89.5412,VALID,0,VALID,21.1476,VALID,25,VALID,0.958203,
2011-08-14, 02:38:04,VALID,999.965,VALID,0,VALID,89.6175,VALID,0,VALID,21.1281,VALID,53,VALID,1.86719,
2011-08-14, 02:39:04,VALID,1000,VALID,0,VALID,89.526,VALID,0,VALID,21.1086,VALID,55,VALID,1.55742,
2011-08-14, 02:40:04,VALID,999.997,VALID,0,VALID,89.648,VALID,0,VALID,21.1086,VALID,28,VALID,0.828906,
2011-08-14, 02:41:04,VALID,999.975,VALID,0,VALID,89.5946,VALID,0,VALID,21.0696,VALID,23,VALID,0.90625,
2011-08-14, 02:42:04,VALID,999.97,VALID,0,VALID,89.6709,VALID,0,VALID,21.0306,VALID,23,VALID,1.09414,
2011-08-14, 02:43:04,VALID,999.968,VALID,0,VALID,89.938,VALID,0,VALID,21.0111,VALID,23,VALID,1.08867,
2011-08-14, 02:44:04,VALID,999.97,VALID,0,VALID,90.0677,VALID,0,VALID,20.9721,VALID,23,VALID,1.02969,
2011-08-14, 02:45:04,VALID,999.922,VALID,0,VALID,90.2126,VALID,0,VALID,20.9136,VALID,23,VALID,0.989844,
2011-08-14, 02:46:04,VALID,999.931,VALID,0,VALID,90.3728,VALID,0,VALID,20.8941,VALID,23,VALID,0.959375,
2011-08-14, 02:47:04,VALID,999.916,VALID,0,VALID,90.5407,VALID,0,VALID,20.8535,VALID,23,VALID,1.23672,
2011-08-14, 02:48:04,VALID,999.935,VALID,0,VALID,90.6246,VALID,0,VALID,20.8356,VALID,42,VALID,1.31992,
2011-08-14, 02:49:04,VALID,999.921,VALID,0,VALID,90.5865,VALID,0,VALID,20.795,VALID,54,VALID,1.44258,
2011-08-14, 02:50:04,VALID,999.916,VALID,0,VALID,90.5636,VALID,0,VALID,20.8161,VALID,44,VALID,1.12734,
2011-08-14, 02:51:04,VALID,999.949,VALID,0,VALID,90.4491,VALID,0,VALID,20.7966,VALID,25,VALID,0.730078,
2011-08-14, 02:52:04,VALID,999.938,VALID,0,VALID,90.3271,VALID,0,VALID,20.7771,VALID,25,VALID,0.908203,
2011-08-14, 02:53:04,VALID,999.96,VALID,0,VALID,90.2508,VALID,0,VALID,20.756,VALID,25,VALID,0.471094,
2011-08-14, 02:54:04,VALID,999.921,VALID,0,VALID,90.144,VALID,0,VALID,20.7771,VALID,25,VALID,0.397266,
2011-08-14, 02:55:04,VALID,999.943,VALID,0,VALID,90.06,VALID,0,VALID,20.7576,VALID,25,VALID,0.351563,
2011-08-14, 02:56:04,VALID,999.933,VALID,0,VALID,90.06,VALID,0,VALID,20.7576,VALID,25,VALID,0.0515625,
2011-08-14, 02:57:04,VALID,999.934,VALID,0,VALID,90.0677,VALID,0,VALID,20.7576,VALID,25,VALID,0,
2011-08-14, 02:58:04,VALID,999.917,VALID,0,VALID,90.1287,VALID,0,VALID,20.7576,VALID,25,VALID,0,
2011-08-14, 02:59:04,VALID,999.908,VALID,0,VALID,90.1745,VALID,0,VALID,20.7381,VALID,25,VALID,0.533203,
2011-08-14, 03:00:04,VALID,999.871,VALID,0,VALID,90.3042,VALID,0,VALID,20.7771,VALID,25,VALID,0.736328,
2011-08-14, 03:01:04,VALID,999.906,VALID,0,VALID,90.3957,VALID,0,VALID,20.7966,VALID,25,VALID,0.546875,
2011-08-14, 03:02:04,VALID,999.882,VALID,0,VALID,90.4186,VALID,0,VALID,20.8356,VALID,25,VALID,0.486328,
2011-08-14, 03:03:04,VALID,999.896,VALID,0,VALID,90.4491,VALID,0,VALID,20.834,VALID,25,VALID,0.786328,
2011-08-14, 03:04:04,VALID,999.869,VALID,0,VALID,90.4415,VALID,0,VALID,20.8941,VALID,25,VALID,0.664063,
2011-08-14, 03:05:04,VALID,999.877,VALID,0,VALID,90.2966,VALID,0,VALID,20.8941,VALID,25,VALID,0.460547,
2011-08-14, 03:06:04,VALID,999.87,VALID,0,VALID,90.0295,VALID,0,VALID,20.8551,VALID,25,VALID,0.260156,
2011-08-14, 03:07:04,VALID,999.842,VALID,0,VALID,89.938,VALID,0,VALID,20.8145,VALID,25,VALID,0.312891,
2011-08-14, 03:08:04,VALID,999.874,VALID,0,VALID,89.9609,VALID,0,VALID,20.8356,VALID,25,VALID,0.423047,
2011-08-14, 03:09:04,VALID,999.841,VALID,0,VALID,89.9456,VALID,0,VALID,20.7966,VALID,25,VALID,0.766016,
2011-08-14, 03:10:04,VALID,999.816,VALID,0,VALID,90.2584,VALID,0,VALID,20.8145,VALID,25,VALID,0.453906,
2011-08-14, 03:11:04,VALID,999.794,VALID,0,VALID,90.3194,VALID,0,VALID,20.8551,VALID,25,VALID,0.478125,
2011-08-14, 03:12:04,VALID,999.763,VALID,0,VALID,90.2508,VALID,0,VALID,20.8356,VALID,25,VALID,0.448047,
2011-08-14, 03:13:04,VALID,999.799,VALID,0,VALID,90.2431,VALID,0,VALID,20.8551,VALID,25,VALID,0.260156,
2011-08-14, 03:14:04,VALID,999.787,VALID,0,VALID,90.2889,VALID,0,VALID,20.8746,VALID,25,VALID,0.0660156,
2011-08-14, 03:15:04,VALID,999.792,VALID,0,VALID,90.2508,VALID,0,VALID,20.8535,VALID,25,VALID,0,
2011-08-14, 03:16:04,VALID,999.729,VALID,0,VALID,90.2584,VALID,0,VALID,20.8551,VALID,25,VALID,0.465234,
2011-08-14, 03:17:04,VALID,999.699,VALID,0,VALID,90.4186,VALID,0,VALID,20.8941,VALID,25,VALID,0.416016,
2011-08-14, 03:18:04,VALID,999.715,VALID,0,VALID,90.2584,VALID,0,VALID,20.873,VALID,25,VALID,0.525391,
2011-08-14, 03:19:04,VALID,999.73,VALID,0,VALID,90.06,VALID,0,VALID,20.8746,VALID,25,VALID,0.421094,
2011-08-14, 03:20:04,VALID,999.716,VALID,0,VALID,89.8769,VALID,0,VALID,20.8145,VALID,25,VALID,0.225,
2011-08-14, 03:21:04,VALID,999.733,VALID,0,VALID,89.7701,VALID,0,VALID,20.795,VALID,25,VALID,0.351953,
2011-08-14, 03:22:04,VALID,999.716,VALID,0,VALID,89.7014,VALID,0,VALID,20.756,VALID,25,VALID,0.517187,
2011-08-14, 03:23:04,VALID,999.715,VALID,0,VALID,89.9151,VALID,0,VALID,20.7771,VALID,25,VALID,1.01875,
2011-08-14, 03:24:04,VALID,999.744,VALID,0,VALID,89.9761,VALID,0,VALID,20.7966,VALID,25,VALID,0.634766,
2011-08-14, 03:25:04,VALID,999.705,VALID,0,VALID,90.0753,VALID,0,VALID,20.7755,VALID,20,VALID,1.16016,
2011-08-14, 03:26:04,VALID,999.718,VALID,0,VALID,89.9837,VALID,0,VALID,20.8161,VALID,19,VALID,1.05234,
2011-08-14, 03:27:04,VALID,999.729,VALID,0,VALID,89.7625,VALID,0,VALID,20.756,VALID,5,VALID,1.04492,
2011-08-14, 03:28:04,VALID,999.739,VALID,0,VALID,89.5336,VALID,0,VALID,20.7186,VALID,23,VALID,1.82773,
2011-08-14, 03:29:04,VALID,999.794,VALID,0,VALID,89.6328,VALID,0,VALID,20.6781,VALID,33,VALID,1.43008,
2011-08-14, 03:30:04,VALID,999.78,VALID,0,VALID,89.7777,VALID,0,VALID,20.6601,VALID,56,VALID,0.953516,
2011-08-14, 03:31:04,VALID,999.777,VALID,0,VALID,90.0982,VALID,0,VALID,20.6406,VALID,53,VALID,0.9125,
2011-08-14, 03:32:04,VALID,999.768,VALID,0,VALID,90.4339,VALID,0,VALID,20.6406,VALID,47,VALID,0.818359,
2011-08-14, 03:33:04,VALID,999.764,VALID,0,VALID,90.7238,VALID,0,VALID,20.6406,VALID,43,VALID,1.13945,
2011-08-14, 03:34:04,VALID,999.793,VALID,0,VALID,90.884,VALID,0,VALID,20.6601,VALID,22,VALID,0.930859,
2011-08-14, 03:35:04,VALID,999.769,VALID,0,VALID,91.0214,VALID,0,VALID,20.6796,VALID,37,VALID,1.28594,
2011-08-14, 03:36:04,VALID,999.777,VALID,0,VALID,91.0824,VALID,0,VALID,20.6796,VALID,37,VALID,1.36406,
2011-08-14, 03:37:04,VALID,999.79,VALID,0,VALID,91.029,VALID,0,VALID,20.6601,VALID,26,VALID,0.780859,
2011-08-14, 03:38:04,VALID,999.815,VALID,0,VALID,90.9374,VALID,0,VALID,20.6016,VALID,26,VALID,0.805469,
2011-08-14, 03:39:04,VALID,999.829,VALID,0,VALID,90.9756,VALID,0,VALID,20.6211,VALID,3,VALID,0.879687,
2011-08-14, 03:40:04,VALID,999.852,VALID,0,VALID,90.9146,VALID,0,VALID,20.6211,VALID,6,VALID,0.486719,
2011-08-14, 03:41:04,VALID,999.859,VALID,0,VALID,90.7772,VALID,0,VALID,20.6016,VALID,6,VALID,0.877734,
2011-08-14, 03:42:04,VALID,999.87,VALID,0,VALID,90.6857,VALID,0,VALID,20.6016,VALID,6,VALID,0.8375,
2011-08-14, 03:43:04,VALID,999.899,VALID,0,VALID,90.5483,VALID,0,VALID,20.6211,VALID,6,VALID,1.00391,
2011-08-14, 03:44:04,VALID,999.871,VALID,0,VALID,90.4644,VALID,0,VALID,20.6601,VALID,6,VALID,0.983594,
2011-08-14, 03:45:04,VALID,999.883,VALID,0,VALID,90.3957,VALID,0,VALID,20.6991,VALID,6,VALID,0.955859,
2011-08-14, 03:46:04,VALID,999.851,VALID,0,VALID,90.2355,VALID,0,VALID,20.7576,VALID,3,VALID,0.924219,